Change the Weather History Date:

Wednesday, September 11, 2013

  Actual Average (KHTO) Record (KHTO)
Temperature  
Mean Temperature 75 °F -  
Max Temperature 80 °F 75 °F 93 °F (1931)
Min Temperature 70 °F 58 °F 43 °F (1938)
Cooling Degree Days 10    
Growing Degree Days 25 (Base 50)    
Moisture  
Dew Point 70 °F    
Average Humidity 87    
Maximum Humidity 93    
Minimum Humidity 74    
Precipitation  
Precipitation 0.00 in - - ()
Sea Level Pressure  
Sea Level Pressure 30.09 in    
Wind  
Wind Speed 7 mph (SSW)    
Max Wind Speed 9 mph    
Max Gust Speed 20 mph    
Averages and records for this station are not official NWS values.
T = Trace of Precipitation, MM = Missing Value Source: NWS Daily Summary

Daily Weather History Graph

Daily Weather History Graph

Search for Another Location

Airport or City:

Trip Planner

Search our weather history database for the weather conditions in past years. The results will help you decide how hot, cold, wet, or windy it might be!

Date:

Astronomy

Sep. 11, 2013 Rise Set
Actual Time 6:24 AM EDT 7:03 PM EDT
Civil Twilight 5:56 AM EDT 7:30 PM EDT
Nautical Twilight 5:23 AM EDT 8:03 PM EDT
Astronomical Twilight 4:49 AM EDT 8:37 PM EDT
Moon 12:52 PM EDT (9/11) 10:53 PM EDT (9/11)
Length of Visible Light 13h 34m
Length of Day
12h 38m
Waxing Crescent, 38% of the Moon is Illuminated
Sep 11
Waxing Crescent
Sep 12
First Quarter
Sep 19
Full
Sep 26
Last Quarter
Oct 4
New

Hourly Weather History & Observations

Time (EDT) Temp. Heat Index Dew Point Humidity Pressure Visibility Wind Dir Wind Speed Gust Speed Precip Events Conditions
12:54 AM 72.0 °F - 69.1 °F 91% 30.12 in - SW 9.2 mph 19.6 mph N/A   Unknown
1:54 AM 72.0 °F - 69.1 °F 91% 30.11 in - SSW 8.1 mph 19.6 mph N/A   Unknown
2:54 AM 71.1 °F - 69.1 °F 93% 30.10 in - SW 8.1 mph - N/A   Unknown
3:54 AM 71.1 °F - 69.1 °F 93% 30.09 in - SW 4.6 mph - N/A   Unknown
4:54 AM 70.0 °F - 68.0 °F 93% 30.09 in - SSW 4.6 mph - N/A   Unknown
5:54 AM 71.1 °F - 69.1 °F 93% 30.10 in - Calm Calm - N/A   Unknown
6:54 AM 70.0 °F - 68.0 °F 93% 30.13 in - South 4.6 mph - N/A   Unknown
7:54 AM 72.0 °F - 69.1 °F 91% 30.13 in - SSW 6.9 mph - N/A   Unknown
8:54 AM 75.0 °F - 70.0 °F 84% 30.13 in - SW 5.8 mph - N/A   Unknown
9:54 AM 78.1 °F - 71.1 °F 79% 30.12 in - Variable 4.6 mph - N/A   Unknown
10:54 AM 77.0 °F - 70.0 °F 79% 30.12 in - Variable 4.6 mph - N/A   Unknown
11:54 AM 78.1 °F - 71.1 °F 79% 30.11 in - South 5.8 mph - N/A   Unknown
12:54 PM 80.1 °F 83.6 °F 71.1 °F 74% 30.10 in - South 5.8 mph - N/A   Unknown
1:54 PM 79.0 °F - 71.1 °F 77% 30.08 in - SSW 6.9 mph - N/A   Unknown
2:54 PM 78.1 °F - 71.1 °F 79% 30.07 in - SSW 9.2 mph - N/A   Unknown
3:54 PM 78.1 °F - 71.1 °F 79% 30.06 in - SSW 5.8 mph - N/A   Unknown
4:54 PM 78.1 °F - 70.0 °F 76% 30.05 in - SSW 6.9 mph - N/A   Unknown
5:54 PM 73.9 °F - 69.1 °F 85% 30.04 in - SSW 9.2 mph 18.4 mph N/A   Unknown
6:54 PM 73.0 °F - 70.0 °F 90% 30.05 in - SSW 6.9 mph - N/A   Unknown
7:54 PM 73.0 °F - 70.0 °F 90% 30.06 in - SSW 6.9 mph - N/A   Unknown
8:54 PM 72.0 °F - 70.0 °F 93% 30.06 in - SSW 8.1 mph - N/A   Unknown
9:54 PM 72.0 °F - 69.1 °F 91% 30.05 in - Variable 6.9 mph - N/A   Unknown
10:54 PM 72.0 °F - 69.1 °F 91% 30.05 in - SSW 8.1 mph 16.1 mph N/A   Unknown
11:54 PM 71.1 °F - 69.1 °F 93% 30.02 in - SSW 6.9 mph - N/A   Unknown